Split Airport, Croatia

3:44 PM CEST on September 22, 2017 (GMT +0200)
Kastela

Weather History for LDSP - October, 2012

Change the Weather History Date:

Tuesday, October 30, 2012

  Actual Average Record
Temperature  
Mean Temperature 48 °F -  
Max Temperature 56 °F - - ()
Min Temperature 41 °F - - ()
Degree Days  
Heating Degree Days 16    
Moisture  
Dew Point 33 °F    
Average Humidity 58    
Maximum Humidity 81    
Minimum Humidity 31    
Precipitation  
Precipitation 0.00 in - - ()
Sea Level Pressure  
Sea Level Pressure 29.91 in    
Wind  
Wind Speed 5 mph ()    
Max Wind Speed 13 mph    
Max Gust Speed -    
Visibility 14.8 miles    
Events      
T = Trace of Precipitation, MM = Missing Value Source: Averaged Metar Reports

Daily Weather History Graph

Daily Weather History Graph

Search for Another Location

Airport or City:

Trip Planner

Search our weather history database for the weather conditions in past years. The results will help you decide how hot, cold, wet, or windy it might be!

Date:

Astronomy

Oct. 30, 2012 Rise Set
Actual Time 6:28 AM CET 4:48 PM CET
Civil Twilight 5:58 AM CET 5:17 PM CET
Nautical Twilight 5:24 AM CET 5:51 PM CET
Astronomical Twilight 4:51 AM CET 6:24 PM CET
Moon 5:04 PM CET (10/30) 7:00 AM CET (10/30)
Length of Visible Light 11h 19m
Length of Day
10h 20m
Full, 100% of the Moon is Illuminated
Oct 30
Full
Nov 7
Last Quarter
Nov 13
New
Nov 20
First Quarter
Nov 28
Full

Hourly Weather History & Observations

Time (CET) Temp. Windchill Dew Point Humidity Pressure Visibility Wind Dir Wind Speed Gust Speed Precip Events Conditions
12:00 AM 44.6 °F 41.4 °F 33.8 °F 66% 29.80 in - North 5.8 mph - N/A   Clear
12:30 AM 44.6 °F 39.7 °F 32.0 °F 61% 29.83 in - North 9.2 mph - N/A   Clear
1:00 AM 44 °F - 32 °F 53% 29.84 in 12 mi North 6.7 mph - -  
1:00 AM 44.6 °F 40.7 °F 32.0 °F 61% 29.83 in - North 6.9 mph - N/A   Clear
1:30 AM 42.8 °F 38.6 °F 32.0 °F 66% 29.83 in - NE 6.9 mph - N/A   Clear
2:00 AM 44.6 °F 41.4 °F 32.0 °F 61% 29.86 in - North 5.8 mph - N/A   Clear
2:30 AM 44.6 °F 40.2 °F 32.0 °F 61% 29.86 in - North 8.1 mph - N/A   Clear
3:00 AM 42.8 °F 39.3 °F 32.0 °F 66% 29.86 in - NNW 5.8 mph - N/A   Clear
3:30 AM 42.8 °F 37.5 °F 30.2 °F 61% 29.86 in - North 9.2 mph - N/A   Clear
4:00 AM 43 °F - 30 °F 49% 29.87 in 12 mi North 13.4 mph - -  
4:00 AM 42.8 °F 36.2 °F 30.2 °F 61% 29.86 in - North 12.7 mph - N/A   Clear
4:30 AM 42.8 °F 36.2 °F 30.2 °F 61% 29.86 in - North 12.7 mph - N/A   Clear
5:00 AM 42.8 °F 39.3 °F 30.2 °F 61% 29.86 in - North 5.8 mph - N/A   Clear
5:30 AM 41.0 °F 38.0 °F 28.4 °F 61% 29.86 in - NE 4.6 mph - N/A   Clear
6:00 AM 41.0 °F 37.1 °F 28.4 °F 61% 29.86 in - North 5.8 mph - N/A   Clear
6:30 AM 42.8 °F - 28.4 °F 57% 29.86 in - Calm Calm - N/A   Clear
7:00 AM 42 °F - 28 °F 46% 29.89 in 19 mi Calm Calm - -  
7:00 AM 42.8 °F - 28.4 °F 57% 29.89 in - Calm Calm - N/A   Clear
7:30 AM 42.8 °F 38.6 °F 30.2 °F 61% 29.89 in - NNW 6.9 mph - N/A   Clear
8:00 AM 46.4 °F 44.3 °F 30.2 °F 53% 29.89 in - NNW 4.6 mph - N/A   Clear
8:30 AM 46.4 °F 43.5 °F 30.2 °F 53% 29.92 in - North 5.8 mph - N/A   Clear
9:00 AM 48.2 °F - 32.0 °F 54% 29.92 in - NNE 9.2 mph - N/A   Clear
9:30 AM 50.0 °F - 32.0 °F 50% 29.92 in - NNE 6.9 mph - N/A   Clear
10:00 AM 51 °F - 32 °F 35% 29.92 in 31 mi NE 6.7 mph - -  
10:00 AM 50.0 °F - 32.0 °F 50% 29.92 in - NE 5.8 mph - N/A   Clear
10:30 AM 51.8 °F - 32.0 °F 47% 29.92 in - Variable 1.2 mph - N/A   Clear
11:00 AM 53.6 °F - 32.0 °F 44% 29.92 in - Variable 3.5 mph - N/A   Clear
11:30 AM 53.6 °F - 33.8 °F 47% 29.92 in - Variable 3.5 mph - N/A   Clear
12:00 PM 53.6 °F - 32.0 °F 44% 29.92 in - Variable 3.5 mph - N/A   Clear
12:30 PM 55.4 °F - 32.0 °F 41% 29.92 in - Variable 3.5 mph - N/A   Clear
1:00 PM 55 °F - 33 °F 31% 29.92 in 31 mi SE 4.5 mph - -   Clear
1:00 PM 55.4 °F - 33.8 °F 44% 29.92 in - Variable 3.5 mph - N/A   Clear
1:30 PM 55.4 °F - 33.8 °F 44% 29.89 in - Variable 3.5 mph - N/A   Clear
2:00 PM 55.4 °F - 33.8 °F 44% 29.92 in - Variable 2.3 mph - N/A   Clear
2:30 PM 55.4 °F - 33.8 °F 44% 29.92 in - Variable 2.3 mph - N/A   Clear
3:00 PM 55.4 °F - 33.8 °F 44% 29.92 in - Variable 2.3 mph - N/A   Clear
3:30 PM 55.4 °F - 33.8 °F 44% 29.92 in - Variable 1.2 mph - N/A   Clear
4:00 PM 53 °F - 36 °F 40% 29.92 in 31 mi NE 2.2 mph - -   Clear
4:00 PM 53.6 °F - 35.6 °F 51% 29.92 in - Variable 3.5 mph - N/A   Clear
4:30 PM 51.8 °F - 37.4 °F 58% 29.92 in - Variable 1.2 mph - N/A   Clear
5:00 PM 50.0 °F - 37.4 °F 62% 29.92 in - Variable 1.2 mph - N/A   Clear
5:30 PM 48.2 °F - 35.6 °F 62% 29.92 in - Variable 3.5 mph - N/A   Clear
6:00 PM 46.4 °F 43.5 °F 35.6 °F 66% 29.92 in - NNW 5.8 mph - N/A   Clear
6:30 PM 44.6 °F 42.2 °F 35.6 °F 71% 29.92 in - NNW 4.6 mph - N/A   Clear
7:00 PM 44 °F - 36 °F 65% 29.96 in 19 mi NW 2.2 mph - -   Clear
7:00 PM 44.6 °F - 35.6 °F 71% 29.95 in - Variable 2.3 mph - N/A   Clear
7:30 PM 44.6 °F 42.2 °F 35.6 °F 71% 29.95 in - NNW 4.6 mph - N/A   Clear
8:00 PM 44.6 °F 41.4 °F 37.4 °F 76% 29.95 in - NNW 5.8 mph - N/A   Clear
8:30 PM 42.8 °F 41.1 °F 35.6 °F 76% 29.95 in - Variable 3.5 mph - N/A   Clear
9:00 PM 42.8 °F 40.1 °F 35.6 °F 76% 29.98 in - NNW 4.6 mph - N/A   Clear
9:30 PM 42.8 °F 40.1 °F 35.6 °F 76% 29.98 in - NW 4.6 mph - N/A   Clear
10:00 PM 42 °F - 36 °F 72% 29.99 in 12 mi NNW 4.5 mph - -  
10:00 PM 42.8 °F 41.1 °F 35.6 °F 76% 29.98 in - Variable 3.5 mph - N/A   Clear
10:30 PM 42.8 °F 40.1 °F 37.4 °F 81% 29.98 in - NNW 4.6 mph - N/A   Clear
11:00 PM 42.8 °F 40.1 °F 37.4 °F 81% 29.98 in - North 4.6 mph - N/A   Clear
11:30 PM 42.8 °F 41.1 °F 37.4 °F 81% 29.98 in - Variable 3.5 mph - N/A   Clear